{"data":{"norad_id":59663,"epoch":"2026-09-21T08:43:41.853504Z","epoch_age_seconds":96627,"freshness":"FRESH","line1":"1 59663U 24084K   26264.36367886  .00000071  00000+0  12088-4 0  9994","line2":"2 59663  43.0041  16.3724 0000917 272.1677  87.9069 15.27583394134302","mean_motion":15.27583394,"eccentricity":9.17e-5,"inclination_deg":43.0041,"raan_deg":16.3724,"arg_perigee_deg":272.1677,"mean_anomaly_deg":87.9069,"bstar":1.2088e-5,"rev_number":13430,"period_min":94.26653927085,"perigee_km":482.40976336841,"apogee_km":483.66810303456,"semimajor_km":6861.1759332015,"source":"CELESTRAK","updated_at":"2026-09-22T09:00:49.026721Z"}}